Regional Weather Roundup
Issued by NWS

Home | Current Version | Previous Version | Graphics & Text | Print | Product List | Glossary On
Versions: 1 2 3 4 5 6 7 8 9 10 11 12 13 14 15 16 17 18 19 20 21 22 23 24 25 26 27 28 29 30 31 32 33 34 35 36 37 38 39 40 41 42 43 44 45 46 47 48 49 50
000
ASUS45 KCYS 230910
RWRWY

WYOMING REGIONAL WEATHER ROUNDUP
NATIONAL WEATHER SERVICE CHEYENNE WY
300 AM MDT WED JUL 23 2014

NOTE:  "FAIR" INDICATES FEW OR NO CLOUDS BELOW 12,000 FEET
WITH NO SIGNIFICANT WEATHER AND/OR OBSTRUCTIONS TO VISIBILITY.

WYZ001-231000-
YELLOWSTONE NATIONAL PARK

CITY           SKY/WX    TMP DP  RH WIND       PRES   REMARKS
LK YELLOWSTONE   N/A     45  41  86 W3        30.45F
W YELLOWSTONE  NOT AVBL

$$
WYZ002>013-054>058-071-098>099-231000-
NORTHERN WYOMING

CITY           SKY/WX    TMP DP  RH WIND       PRES   REMARKS
JACKSON        PTCLDY    52  43  71 NW3       30.33S
CODY           CLEAR     66  45  45 SW5       30.27F
GREYBULL       CLEAR     67  50  54 CALM      30.18F
WORLAND        CLEAR     63  48  58 CALM      30.22R
SHERIDAN       CLEAR     62  54  74 S3        30.25F
BUFFALO        CLEAR     62  52  69 S9        30.35F
GILLETTE       CLEAR     62  56  80 CALM      30.30F
HULETT         FAIR      63  55  77 MISG      30.29
NEWCASTLE      FAIR      63  50  63 CALM      30.32

$$
WYZ014>020-022>026-101>103-231000-
CENTRAL WYOMING

CITY           SKY/WX    TMP DP  RH WIND       PRES   REMARKS
BIG PINEY      CLEAR     51  31  46 SE3       30.38F
PINEDALE       SUNNY     45  41  87 W8        30.39F
DUBOIS         FAIR      54  32  43 NW8       30.41S
LANDER         PTCLDY    63  35  35 VRB6      30.28S
RIVERTON       PTCLDY    71  49  45 E13G23    30.30R
CASPER         CLEAR     62  55  77 N9        30.31S
DOUGLAS        CLEAR     69  58  67 SE9       30.32R

$$
WYZ021-027>030-104>119-231000-
SOUTHERN WYOMING

CITY           SKY/WX    TMP DP  RH WIND       PRES   REMARKS
EVANSTON       CLEAR     65  32  29 S6        30.36F
KEMMERER       SUNNY     59  30  33 N10       30.38S
FORT BRIDGER   FAIR      61  29  30 W9        30.38S
ROCK SPRINGS   CLEAR     68  22  17 SE10      30.35S
DIXON          FAIR      58  27  30 NE6       30.37F
RAWLINS        CLEAR     58  28  32 NE7       30.37F
SARATOGA       FAIR      66  41  39 S15G22    30.40S
LARAMIE        CLEAR     62  55  77 S15       30.44F
CHEYENNE       CLEAR     65  61  87 S14       30.39F
TORRINGTON     CLEAR     68  62  81 SE12      30.28S
PINE BLUFFS    FAIR      64  59  82 CALM      30.35S

$$


USA.gov is the U.S. government's official web portal to all federal, state and local government web resources and services.